Location: Hawks Ness
(60.2333°N, 1.1667°W)
Time: 02:16:34
(UTC+00:00)

Cosmos 1726 - Pass Details

Date: 25 January 2020
Orbit: 483 x 500 km, 82.5° (Epoch: 25 February)

Event Time Altitude Azimuth Distance (km) Brightness Sun altitude
Exits shadow 06:22:34 26° 242° (WSW) 999 3.2 -15.8°
Maximum altitude 06:24:06 39° 293° (WNW) 748 2.5 -15.6°
Drops below altitude 10° 06:27:35 10° 3° (N) 1,684 4.7 -15.2°
Sets 06:29:48 0° 12° (NNE) 2,568 5.7 -14.9°
